Terminal Aerodrome Forecast
Issued by NWS

Home | Current Version | Previous Version | Text Only | Print | Product List | Glossary On
Versions: 1 2 3 4 5 6 7 8 9 10 11 12 13 14 15 16 17 18 19 20 21 22 23 24 25
000
FTUS46 KSEW 271100
TAFCLM
TAF
KCLM 271130Z 2712/2812 25005KT P6SM -RA SCT025 BKN030 OVC070
     FM272000 26008KT P6SM -RA BKN035 OVC080=

USA.gov is the U.S. government's official web portal to all federal, state and local government web resources and services.